QPF
0.10 0.16 0.23 0.21 0.18 0.13 0.13 0.13 0.14 0.11 0.10 0.11 0.10 0.11 0.12 0.12 0.11 0.10 0.07 0.05 0.04 0.03 0.02 0.02 0.03 0.02 0.02 0.02 0.03 0.03 0.03 0.03 0.03 0.04 0.03 0.02 0.02 0.04 0.03 0.02 0.01 0.01 0.01
0.10 0.14 0.20 0.20 0.15 0.12 0.12 0.12 0.10 0.08 0.11 0.10 0.09 0.08 0.08 0.08 0.08 0.07 0.05 0.03 0.02 0.02 0.01 0.01 0.02 0.01 0.01 0.02 0.02 0.02 0.03 0.03 0.04 0.06 0.06 0.02 0.03 0.04 0.03 0.02 0.01 0.01 0.02
0.09 0.12 0.17 0.17 0.14 0.11 0.09 0.09 0.07 0.08 0.09 0.07 0.05 0.05 0.05 0.05 0.04 0.04 0.03 0.02 0.02 0.01 0.01 0.01 0.01 0.01 0.01 0.01 0.01 0.01 0.02 0.02 0.04 0.06 0.05 0.02 0.03 0.03 0.03 0.03 0.02 0.03 0.02
0.08 0.09 0.12 0.15 0.12 0.09 0.07 0.07 0.08 0.06 0.06 0.05 0.04 0.03 0.03 0.03 0.03 0.03 0.03 0.02 0.01 0.01 0.01 0.01 0.01 0.01 0.01 0.01 0.01 0.01 0.01 0.01 0.02 0.03 0.01 0.01 0.01 0.02 0.02 0.02 0.03 0.02 0.03
0.08 0.08 0.12 0.12 0.10 0.08 0.07 0.07 0.06 0.05 0.04 0.04 0.03 0.03 0.02 0.03 0.04 0.03 0.02 0.01 0.01 0.01 0.01 0.02 0.02 0.01 0.01 0.01 0.01 0.01 0.02 0.01 0.01 0.01 0.00 0.01 0.01 0.02 0.01 0.02 0.02 0.02 0.02
0.06 0.07 0.11 0.10 0.09 0.08 0.07 0.05 0.05 0.05 0.03 0.03 0.03 0.02 0.01 0.02 0.02 0.02 0.02 0.01 0.01 0.01 0.01 0.02 0.03 0.01 0.01 0.01 0.01 0.01 0.03 0.01 0.01 0.00 0.00 0.01 0.01 0.02 0.03 0.02 0.02 0.02 0.03
0.05 0.06 0.10 0.10 0.09 0.08 0.07 0.05 0.05 0.04 0.04 0.03 0.02 0.02 0.02 0.02 0.02 0.02 0.02 0.01 0.01 0.00 0.01 0.02 0.02 0.01 0.01 0.01 0.01 0.02 0.02 0.02 0.00 0.00 0.00 0.01 0.01 0.02 0.04 0.04 0.02 0.02 0.02
0.05 0.06 0.08 0.08 0.07 0.07 0.06 0.05 0.07 0.05 0.03 0.03 0.03 0.03 0.03 0.03 0.02 0.02 0.02 0.01 0.01 0.01 0.01 0.02 0.02 0.01 0.02 0.02 0.02 0.02 0.03 0.02 0.01 0.00 0.00 0.01 0.01 0.02 0.04 0.03 0.02 0.01 0.02
0.05 0.05 0.07 0.09 0.09 0.07 0.07 0.05 0.05 0.05 0.04 0.04 0.03 0.03 0.03 0.03 0.03 0.02 0.01 0.01 0.00 0.01 0.01 0.01 0.01 0.02 0.03 0.03 0.03 0.03 0.03 0.03 0.01 0.00 0.01 0.00 0.01 0.03 0.04 0.04 0.02 0.02 0.02
0.04 0.05 0.06 0.09 0.08 0.05 0.04 0.06 0.06 0.05 0.05 0.05 0.04 0.03 0.03 0.03 0.03 0.02 0.01 0.01 0.01 0.01 0.01 0.01 0.02 0.03 0.03 0.03 0.04 0.04 0.03 0.03 0.02 0.01 0.01 0.00 0.02 0.03 0.04 0.04 0.03 0.02 0.02
0.02 0.03 0.05 0.07 0.06 0.03 0.03 0.05 0.05 0.05 0.05 0.05 0.04 0.03 0.02 0.01 0.01 0.01 0.01 0.02 0.02 0.02 0.02 0.02 0.02 0.03 0.03 0.03 0.04 0.04 0.03 0.02 0.03 0.03 0.01 0.01 0.02 0.03 0.04 0.04 0.05 0.03 0.02
0.01 0.01 0.03 0.04 0.03 0.02 0.01 0.02 0.02 0.02 0.04 0.04 0.01 0.02 0.02 0.01 0.01 0.01 0.02 0.05 0.06 0.05 0.04 0.05 0.05 0.05 0.03 0.02 0.03 0.04 0.02 0.02 0.03 0.02 0.02 0.02 0.03 0.03 0.03 0.04 0.04 0.03 0.03
0.01 0.01 0.01 0.02 0.01 0.01 0.01 0.01 0.01 0.01 0.02 0.02 0.01 0.01 0.01 0.00 0.01 0.01 0.00 0.02 0.03 0.03 0.03 0.04 0.05 0.04 0.03 0.03 0.03 0.03 0.02 0.03 0.02 0.03 0.03 0.01 0.03 0.04 0.05 0.06 0.05 0.03 0.03
0.01 0.01 0.01 0.01 0.01 0.01 0.02 0.01 0.01 0.01 0.01 0.01 0.01 0.01 0.01 0.01 0.00 0.00 0.00 0.00 0.01 0.01 0.02 0.02 0.02 0.02 0.02 0.02 0.03 0.03 0.02 0.02 0.02 0.02 0.02 0.02 0.03 0.03 0.04 0.05 0.06 0.05 0.04
0.00 0.00 0.01 0.01 0.01 0.00 0.01 0.01 0.01 0.01 0.01 0.01 0.01 0.01 0.01 0.01 0.01 0.01 0.00 0.01 0.01 0.01 0.01 0.02 0.01 0.02 0.03 0.02 0.02 0.03 0.02 0.01 0.02 0.02 0.02 0.02 0.04 0.03 0.03 0.05 0.06 0.06 0.05
0.00 0.00 0.00 0.01 0.01 0.01 0.01 0.02 0.02 0.02 0.02 0.02 0.02 0.01 0.02 0.02 0.01 0.00 0.01 0.02 0.02 0.02 0.02 0.02 0.03 0.03 0.03 0.03 0.04 0.02 0.02 0.02 0.02 0.03 0.03 0.02 0.04 0.03 0.03 0.04 0.04 0.06 0.06
0.00 0.00 0.00 0.00 0.01 0.01 0.02 0.02 0.02 0.02 0.02 0.04 0.03 0.02 0.02 0.02 0.01 0.01 0.02 0.02 0.02 0.02 0.02 0.03 0.03 0.02 0.02 0.02 0.04 0.03 0.03 0.04 0.03 0.04 0.03 0.02 0.02 0.03 0.05 0.05 0.05 0.05 0.05
0.00 0.00 0.00 0.00 0.00 0.01 0.02 0.02 0.02 0.02 0.03 0.03 0.03 0.02 0.03 0.03 0.03 0.02 0.02 0.02 0.02 0.03 0.02 0.02 0.01 0.01 0.02 0.02 0.02 0.02 0.02 0.02 0.03 0.04 0.03 0.02 0.02 0.02 0.03 0.06 0.07 0.05 0.04
0.00 0.00 0.00 0.00 0.00 0.01 0.01 0.01 0.02 0.02 0.03 0.03 0.03 0.02 0.03 0.03 0.04 0.04 0.03 0.03 0.03 0.04 0.03 0.02 0.02 0.02 0.02 0.02 0.02 0.02 0.02 0.02 0.01 0.02 0.02 0.03 0.04 0.03 0.02 0.04 0.06 0.06 0.07
0.00 0.00 0.00 0.00 0.01 0.01 0.01 0.02 0.03 0.03 0.04 0.04 0.03 0.03 0.03 0.05 0.06 0.06 0.05 0.04 0.04 0.05 0.05 0.04 0.04 0.05 0.03 0.02 0.03 0.02 0.02 0.01 0.01 0.01 0.01 0.02 0.04 0.05 0.05 0.04 0.04 0.06 0.08
0.01 0.01 0.01 0.01 0.01 0.02 0.02 0.03 0.04 0.03 0.03 0.03 0.03 0.02 0.03 0.04 0.05 0.07 0.07 0.05 0.04 0.04 0.04 0.04 0.03 0.03 0.03 0.03 0.02 0.02 0.01 0.01 0.01 0.01 0.01 0.01 0.02 0.03 0.03 0.03 0.04 0.06 0.06
0.02 0.02 0.02 0.02 0.02 0.02 0.02 0.03 0.03 0.03 0.02 0.02 0.03 0.02 0.02 0.02 0.04 0.06 0.08 0.07 0.05 0.04 0.04 0.04 0.04 0.04 0.03 0.03 0.03 0.03 0.04 0.02 0.01 0.01 0.01 0.01 0.02 0.02 0.03 0.03 0.03 0.04 0.04
0.05 0.06 0.04 0.03 0.02 0.02 0.02 0.03 0.02 0.02 0.01 0.01 0.02 0.01 0.01 0.01 0.02 0.03 0.05 0.05 0.05 0.05 0.04 0.05 0.05 0.04 0.03 0.03 0.03 0.04 0.05 0.03 0.01 0.01 0.00 0.01 0.01 0.01 0.02 0.03 0.03 0.03 0.03
0.05 0.06 0.04 0.03 0.03 0.02 0.02 0.03 0.02 0.02 0.01 0.01 0.01 0.01 0.01 0.02 0.02 0.02 0.03 0.04 0.04 0.04 0.03 0.03 0.02 0.03 0.03 0.02 0.02 0.03 0.04 0.03 0.03 0.01 0.01 0.01 0.01 0.01 0.02 0.03 0.04 0.04 0.03
0.02 0.02 0.04 0.02 0.02 0.02 0.02 0.02 0.02 0.02 0.02 0.01 0.01 0.00 0.01 0.01 0.01 0.02 0.02 0.03 0.03 0.04 0.04 0.04 0.03 0.04 0.04 0.04 0.03 0.04 0.04 0.04 0.03 0.02 0.01 0.01 0.01 0.01 0.01 0.01 0.02 0.02 0.02
0.01 0.02 0.04 0.01 0.01 0.01 0.03 0.05 0.04 0.02 0.01 0.01 0.01 0.00 0.01 0.01 0.01 0.02 0.01 0.02 0.03 0.04 0.04 0.04 0.04 0.04 0.04 0.04 0.03 0.03 0.04 0.05 0.04 0.03 0.02 0.01 0.01 0.01 0.01 0.01 0.01 0.01 0.02
MSLP
1008.13 1007.70 1007.48 1007.50 1007.73 1008.09 1008.52 1008.95 1009.35 1009.69 1010.01 1010.33 1010.68 1011.09 1011.55 1012.05 1012.56 1013.02 1013.42 1013.74 1013.98 1014.16 1014.30 1014.45 1014.61 1014.80 1015.02 1015.26 1015.49 1015.70 1015.89 1016.04 1016.17 1016.29 1016.41 1016.55 1016.72 1016.91 1017.13 1017.36 1017.60 1017.84 1018.06
1008.09 1007.77 1007.62 1007.69 1007.93 1008.29 1008.69 1009.09 1009.46 1009.79 1010.10 1010.42 1010.79 1011.22 1011.71 1012.24 1012.75 1013.23 1013.63 1013.94 1014.17 1014.34 1014.48 1014.62 1014.77 1014.95 1015.15 1015.37 1015.58 1015.78 1015.97 1016.13 1016.28 1016.42 1016.58 1016.74 1016.93 1017.13 1017.34 1017.56 1017.78 1018.00 1018.22
1008.01 1007.81 1007.76 1007.89 1008.16 1008.53 1008.92 1009.30 1009.64 1009.95 1010.26 1010.58 1010.96 1011.40 1011.90 1012.42 1012.93 1013.39 1013.78 1014.07 1014.30 1014.46 1014.59 1014.72 1014.87 1015.04 1015.23 1015.44 1015.65 1015.86 1016.05 1016.23 1016.42 1016.60 1016.79 1016.98 1017.18 1017.38 1017.58 1017.77 1017.96 1018.15 1018.35
1007.92 1007.84 1007.90 1008.11 1008.43 1008.82 1009.21 1009.58 1009.91 1010.20 1010.50 1010.82 1011.19 1011.63 1012.11 1012.61 1013.10 1013.54 1013.90 1014.17 1014.38 1014.54 1014.68 1014.81 1014.96 1015.13 1015.33 1015.53 1015.74 1015.96 1016.17 1016.39 1016.60 1016.82 1017.05 1017.26 1017.47 1017.66 1017.83 1017.99 1018.14 1018.30 1018.48
1007.84 1007.88 1008.05 1008.34 1008.72 1009.14 1009.55 1009.91 1010.23 1010.51 1010.79 1011.10 1011.46 1011.88 1012.35 1012.82 1013.28 1013.68 1014.01 1014.27 1014.47 1014.63 1014.78 1014.92 1015.08 1015.26 1015.46 1015.67 1015.89 1016.12 1016.35 1016.59 1016.83 1017.09 1017.34 1017.57 1017.77 1017.95 1018.09 1018.22 1018.34 1018.47 1018.62
1007.82 1007.96 1008.22 1008.59 1009.02 1009.47 1009.89 1010.25 1010.56 1010.83 1011.10 1011.40 1011.74 1012.15 1012.58 1013.03 1013.46 1013.84 1014.14 1014.39 1014.59 1014.75 1014.91 1015.08 1015.26 1015.45 1015.66 1015.88 1016.10 1016.33 1016.57 1016.82 1017.08 1017.35 1017.61 1017.85 1018.05 1018.22 1018.34 1018.44 1018.53 1018.63 1018.77
1007.86 1008.07 1008.39 1008.82 1009.29 1009.76 1010.18 1010.53 1010.83 1011.09 1011.35 1011.64 1011.98 1012.38 1012.80 1013.23 1013.64 1013.99 1014.29 1014.53 1014.73 1014.90 1015.08 1015.27 1015.47 1015.68 1015.90 1016.11 1016.33 1016.56 1016.79 1017.04 1017.30 1017.57 1017.83 1018.07 1018.27 1018.42 1018.53 1018.61 1018.69 1018.78 1018.92
1007.98 1008.22 1008.58 1009.04 1009.52 1009.98 1010.39 1010.73 1011.01 1011.25 1011.51 1011.80 1012.15 1012.54 1012.97 1013.39 1013.79 1014.14 1014.42 1014.66 1014.86 1015.05 1015.25 1015.46 1015.68 1015.90 1016.13 1016.34 1016.55 1016.76 1016.97 1017.20 1017.45 1017.70 1017.96 1018.19 1018.38 1018.54 1018.65 1018.73 1018.81 1018.90 1019.04
1008.17 1008.42 1008.79 1009.24 1009.71 1010.15 1010.53 1010.83 1011.08 1011.31 1011.57 1011.87 1012.23 1012.64 1013.08 1013.51 1013.91 1014.25 1014.53 1014.76 1014.97 1015.17 1015.38 1015.60 1015.84 1016.08 1016.31 1016.53 1016.72 1016.91 1017.09 1017.29 1017.51 1017.74 1017.97 1018.20 1018.39 1018.55 1018.67 1018.77 1018.86 1018.98 1019.12
1008.41 1008.66 1009.03 1009.46 1009.90 1010.29 1010.61 1010.87 1011.09 1011.31 1011.56 1011.88 1012.26 1012.69 1013.15 1013.59 1013.99 1014.33 1014.60 1014.82 1015.02 1015.22 1015.44 1015.68 1015.93 1016.18 1016.42 1016.64 1016.82 1016.98 1017.14 1017.30 1017.49 1017.69 1017.90 1018.11 1018.31 1018.48 1018.63 1018.75 1018.87 1019.00 1019.16
1008.69 1008.95 1009.31 1009.71 1010.10 1010.43 1010.70 1010.91 1011.09 1011.29 1011.54 1011.86 1012.27 1012.73 1013.20 1013.65 1014.05 1014.38 1014.64 1014.85 1015.04 1015.23 1015.44 1015.69 1015.95 1016.22 1016.46 1016.68 1016.86 1017.01 1017.14 1017.27 1017.42 1017.59 1017.78 1017.98 1018.18 1018.37 1018.54 1018.70 1018.84 1018.99 1019.16
1008.99 1009.27 1009.63 1010.00 1010.34 1010.62 1010.82 1010.98 1011.13 1011.30 1011.55 1011.88 1012.30 1012.78 1013.26 1013.72 1014.11 1014.43 1014.67 1014.86 1015.03 1015.20 1015.41 1015.66 1015.93 1016.21 1016.47 1016.70 1016.88 1017.02 1017.13 1017.23 1017.35 1017.49 1017.65 1017.84 1018.04 1018.25 1018.44 1018.63 1018.80 1018.97 1019.15
1009.27 1009.60 1009.96 1010.32 1010.62 1010.85 1011.00 1011.12 1011.23 1011.39 1011.63 1011.96 1012.38 1012.86 1013.35 1013.80 1014.18 1014.48 1014.70 1014.87 1015.02 1015.18 1015.38 1015.62 1015.90 1016.19 1016.47 1016.71 1016.90 1017.04 1017.14 1017.22 1017.31 1017.42 1017.56 1017.73 1017.93 1018.14 1018.36 1018.57 1018.76 1018.94 1019.12
1009.50 1009.88 1010.27 1010.62 1010.89 1011.09 1011.21 1011.30 1011.39 1011.53 1011.76 1012.09 1012.51 1012.97 1013.45 1013.88 1014.25 1014.53 1014.74 1014.89 1015.03 1015.19 1015.38 1015.63 1015.91 1016.21 1016.50 1016.75 1016.95 1017.09 1017.18 1017.25 1017.31 1017.39 1017.50 1017.66 1017.85 1018.06 1018.28 1018.50 1018.71 1018.90 1019.07
1009.64 1010.06 1010.47 1010.82 1011.10 1011.28 1011.40 1011.48 1011.56 1011.70 1011.93 1012.24 1012.63 1013.07 1013.52 1013.93 1014.28 1014.56 1014.76 1014.92 1015.06 1015.22 1015.43 1015.67 1015.96 1016.27 1016.56 1016.82 1017.02 1017.17 1017.25 1017.31 1017.35 1017.40 1017.48 1017.61 1017.77 1017.98 1018.19 1018.42 1018.63 1018.82 1018.99
1009.63 1010.08 1010.50 1010.86 1011.15 1011.35 1011.48 1011.58 1011.69 1011.83 1012.05 1012.34 1012.71 1013.11 1013.52 1013.90 1014.24 1014.51 1014.73 1014.91 1015.08 1015.27 1015.49 1015.75 1016.04 1016.35 1016.64 1016.90 1017.10 1017.24 1017.32 1017.36 1017.38 1017.40 1017.45 1017.54 1017.67 1017.85 1018.06 1018.27 1018.48 1018.67 1018.84
1009.46 1009.90 1010.32 1010.69 1010.99 1011.23 1011.41 1011.55 1011.70 1011.86 1012.08 1012.35 1012.67 1013.03 1013.40 1013.75 1014.07 1014.35 1014.60 1014.82 1015.04 1015.27 1015.53 1015.81 1016.11 1016.42 1016.70 1016.95 1017.15 1017.28 1017.35 1017.37 1017.37 1017.36 1017.37 1017.42 1017.52 1017.66 1017.83 1018.03 1018.23 1018.42 1018.58
1009.12 1009.52 1009.92 1010.29 1010.62 1010.91 1011.15 1011.36 1011.56 1011.76 1011.98 1012.23 1012.51 1012.81 1013.12 1013.44 1013.75 1014.05 1014.34 1014.62 1014.90 1015.19 1015.49 1015.80 1016.11 1016.41 1016.69 1016.93 1017.12 1017.24 1017.30 1017.32 1017.30 1017.26 1017.24 1017.24 1017.29 1017.38 1017.51 1017.68 1017.86 1018.04 1018.20
1008.66 1008.98 1009.33 1009.70 1010.06 1010.40 1010.73 1011.02 1011.29 1011.53 1011.76 1011.98 1012.21 1012.45 1012.71 1012.98 1013.28 1013.60 1013.93 1014.27 1014.62 1014.98 1015.32 1015.67 1015.99 1016.30 1016.57 1016.81 1016.99 1017.11 1017.18 1017.19 1017.16 1017.10 1017.05 1017.00 1017.00 1017.03 1017.11 1017.23 1017.38 1017.54 1017.71
1008.13 1008.35 1008.64 1008.99 1009.37 1009.78 1010.18 1010.56 1010.90 1011.19 1011.44 1011.64 1011.82 1011.99 1012.19 1012.42 1012.70 1013.02 1013.39 1013.79 1014.21 1014.62 1015.02 1015.39 1015.74 1016.06 1016.33 1016.56 1016.75 1016.89 1016.97 1016.99 1016.97 1016.91 1016.82 1016.74 1016.68 1016.65 1016.66 1016.73 1016.83 1016.97 1017.12
1007.61 1007.73 1007.94 1008.25 1008.65 1009.10 1009.57 1010.03 1010.45 1010.79 1011.05 1011.23 1011.36 1011.48 1011.61 1011.79 1012.04 1012.37 1012.76 1013.20 1013.67 1014.13 1014.57 1014.98 1015.35 1015.67 1015.96 1016.21 1016.41 1016.58 1016.70 1016.75 1016.75 1016.70 1016.61 1016.49 1016.37 1016.27 1016.22 1016.22 1016.26 1016.36 1016.48
1007.20 1007.19 1007.32 1007.58 1007.96 1008.43 1008.96 1009.48 1009.95 1010.33 1010.61 1010.78 1010.88 1010.94 1011.02 1011.16 1011.37 1011.69 1012.09 1012.55 1013.05 1013.54 1014.01 1014.44 1014.83 1015.17 1015.47 1015.75 1016.00 1016.21 1016.38 1016.49 1016.53 1016.50 1016.41 1016.27 1016.11 1015.95 1015.82 1015.74 1015.72 1015.76 1015.84
1006.94 1006.81 1006.83 1007.02 1007.36 1007.82 1008.36 1008.91 1009.42 1009.84 1010.13 1010.30 1010.38 1010.41 1010.45 1010.55 1010.74 1011.03 1011.42 1011.89 1012.39 1012.90 1013.38 1013.82 1014.21 1014.57 1014.90 1015.21 1015.51 1015.78 1016.02 1016.20 1016.30 1016.32 1016.25 1016.10 1015.91 1015.70 1015.50 1015.34 1015.24 1015.20 1015.23
1006.87 1006.62 1006.52 1006.60 1006.86 1007.27 1007.78 1008.32 1008.84 1009.27 1009.58 1009.76 1009.84 1009.87 1009.89 1009.97 1010.14 1010.42 1010.79 1011.25 1011.74 1012.24 1012.71 1013.14 1013.54 1013.90 1014.26 1014.61 1014.96 1015.30 1015.62 1015.88 1016.05 1016.13 1016.09 1015.96 1015.75 1015.49 1015.23 1015.00 1014.82 1014.71 1014.67
1006.97 1006.60 1006.36 1006.31 1006.44 1006.74 1007.17 1007.67 1008.16 1008.59 1008.91 1009.12 1009.22 1009.27 1009.32 1009.40 1009.57 1009.84 1010.21 1010.64 1011.11 1011.58 1012.04 1012.45 1012.84 1013.21 1013.58 1013.96 1014.36 1014.77 1015.15 1015.49 1015.74 1015.89 1015.90 1015.79 1015.59 1015.31 1015.01 1014.71 1014.46 1014.28 1014.16
1007.23 1006.71 1006.32 1006.10 1006.07 1006.22 1006.53 1006.94 1007.37 1007.78 1008.11 1008.35 1008.50 1008.60 1008.69 1008.82 1009.01 1009.29 1009.65 1010.07 1010.51 1010.96 1011.38 1011.77 1012.14 1012.50 1012.87 1013.28 1013.71 1014.17 1014.62 1015.03 1015.35 1015.56 1015.63 1015.57 1015.38 1015.11 1014.79 1014.45 1014.14 1013.88 1013.70
Thickness
5772 5775 5776 5775 5774 5773 5773 5772 5771 5769 5768 5767 5766 5764 5763 5762 5762 5762 5761 5760 5759 5759 5758 5757 5756 5756 5755 5755 5754 5753 5753 5752 5751 5750 5750 5749 5748 5747 5746 5745 5745 5744 5743
5775 5775 5774 5774 5772 5771 5770 5770 5768 5767 5766 5764 5763 5763 5762 5761 5761 5760 5759 5759 5758 5757 5757 5756 5755 5754 5754 5753 5753 5752 5752 5751 5750 5749 5749 5748 5747 5746 5745 5744 5744 5743 5742
5775 5775 5773 5772 5771 5770 5768 5767 5766 5765 5764 5763 5762 5762 5761 5760 5759 5758 5758 5757 5757 5756 5756 5755 5754 5753 5753 5752 5752 5751 5751 5750 5749 5748 5747 5746 5746 5745 5744 5744 5743 5742 5741
5775 5774 5772 5771 5769 5767 5766 5765 5765 5764 5762 5762 5761 5760 5759 5759 5758 5757 5757 5756 5756 5755 5755 5754 5753 5753 5751 5751 5751 5750 5750 5749 5748 5747 5746 5745 5745 5744 5744 5743 5743 5742 5741
5773 5772 5770 5769 5767 5766 5764 5764 5763 5762 5761 5761 5760 5759 5758 5758 5757 5757 5756 5755 5755 5755 5754 5753 5753 5752 5751 5750 5750 5749 5749 5748 5747 5746 5745 5745 5744 5744 5743 5743 5742 5741 5740
5771 5770 5769 5768 5766 5764 5763 5763 5762 5761 5760 5759 5759 5758 5758 5757 5756 5756 5755 5754 5754 5754 5753 5752 5752 5751 5751 5750 5749 5749 5748 5748 5747 5746 5745 5745 5744 5743 5743 5742 5742 5741 5740
5770 5769 5767 5766 5764 5763 5762 5762 5761 5760 5759 5758 5758 5757 5757 5756 5755 5755 5754 5754 5753 5753 5752 5752 5751 5751 5750 5749 5749 5748 5748 5747 5746 5746 5745 5744 5744 5743 5743 5742 5741 5740 5739
5769 5768 5766 5764 5763 5762 5761 5761 5760 5759 5758 5757 5757 5756 5756 5755 5754 5754 5753 5753 5752 5752 5752 5751 5751 5750 5750 5749 5749 5748 5747 5747 5746 5745 5745 5744 5744 5743 5743 5741 5740 5739 5739
5769 5767 5765 5763 5762 5761 5760 5759 5758 5757 5757 5756 5756 5755 5755 5755 5754 5753 5753 5752 5752 5752 5751 5751 5750 5750 5750 5749 5748 5748 5747 5747 5746 5745 5744 5744 5743 5743 5742 5741 5740 5739 5738
5767 5765 5764 5762 5761 5760 5759 5758 5757 5756 5755 5755 5755 5755 5755 5754 5754 5753 5752 5752 5752 5752 5751 5751 5751 5750 5749 5749 5748 5748 5747 5746 5745 5744 5744 5743 5743 5742 5742 5741 5740 5739 5738
5764 5763 5762 5761 5760 5759 5758 5757 5756 5755 5754 5754 5754 5754 5754 5753 5753 5752 5752 5752 5752 5752 5751 5751 5751 5750 5749 5749 5748 5747 5747 5746 5745 5744 5744 5743 5743 5742 5742 5741 5740 5740 5738
5762 5762 5762 5760 5759 5758 5757 5756 5755 5754 5754 5753 5753 5753 5753 5752 5752 5751 5751 5751 5752 5752 5751 5751 5750 5750 5749 5748 5748 5747 5746 5746 5745 5745 5744 5744 5743 5743 5742 5741 5740 5739 5738
5765 5763 5762 5760 5759 5757 5756 5755 5754 5753 5753 5753 5752 5752 5752 5752 5751 5751 5751 5751 5751 5751 5751 5751 5750 5749 5749 5748 5748 5747 5747 5746 5746 5745 5745 5745 5744 5743 5742 5741 5741 5740 5738
5766 5765 5763 5761 5759 5758 5756 5755 5754 5753 5753 5752 5752 5752 5751 5751 5751 5750 5750 5750 5750 5750 5751 5750 5749 5749 5749 5748 5748 5747 5747 5747 5746 5746 5746 5745 5745 5744 5743 5742 5741 5740 5739
5769 5767 5765 5763 5760 5759 5757 5756 5754 5754 5753 5753 5752 5752 5751 5751 5750 5750 5749 5749 5750 5750 5750 5750 5749 5749 5748 5748 5748 5748 5748 5747 5747 5747 5746 5746 5746 5745 5744 5743 5742 5741 5740
5772 5769 5767 5765 5763 5761 5758 5757 5756 5755 5754 5753 5753 5753 5752 5752 5751 5750 5750 5749 5749 5749 5749 5749 5749 5749 5748 5748 5748 5748 5748 5748 5748 5747 5747 5747 5747 5746 5745 5744 5743 5742 5740
5776 5773 5770 5768 5765 5763 5760 5759 5758 5756 5755 5755 5754 5754 5754 5753 5752 5751 5750 5749 5750 5749 5749 5748 5748 5748 5747 5748 5748 5748 5748 5748 5748 5748 5748 5748 5747 5747 5746 5745 5744 5743 5741
5780 5776 5773 5772 5768 5765 5763 5761 5760 5759 5757 5757 5756 5755 5755 5754 5753 5752 5751 5750 5750 5749 5748 5748 5747 5746 5746 5746 5746 5747 5748 5748 5748 5748 5748 5748 5748 5747 5747 5746 5745 5744 5742
5784 5779 5775 5774 5771 5768 5766 5764 5762 5761 5760 5758 5757 5757 5757 5756 5754 5753 5752 5751 5750 5749 5748 5747 5746 5745 5744 5744 5744 5746 5747 5748 5748 5749 5748 5748 5748 5747 5747 5746 5745 5744 5743
5787 5783 5779 5776 5773 5770 5767 5764 5763 5761 5760 5760 5759 5759 5758 5757 5756 5754 5752 5751 5750 5749 5747 5746 5745 5744 5743 5743 5744 5745 5746 5747 5748 5748 5748 5748 5748 5747 5746 5746 5745 5745 5744
5788 5785 5782 5778 5776 5772 5768 5764 5761 5761 5761 5761 5761 5760 5759 5758 5757 5755 5754 5752 5751 5749 5747 5746 5744 5743 5742 5742 5740 5740 5743 5745 5746 5746 5747 5747 5747 5746 5745 5745 5744 5744 5743
5790 5787 5785 5782 5780 5777 5773 5770 5767 5766 5764 5764 5764 5763 5761 5760 5758 5757 5755 5753 5752 5749 5748 5746 5744 5742 5741 5741 5738 5734 5733 5736 5741 5745 5745 5745 5745 5745 5745 5744 5743 5743 5742
5792 5790 5789 5786 5784 5781 5777 5773 5769 5766 5765 5764 5763 5763 5763 5761 5759 5757 5756 5754 5752 5750 5748 5746 5744 5742 5739 5739 5739 5735 5729 5727 5732 5738 5741 5742 5742 5742 5743 5743 5742 5742 5741
5798 5795 5792 5789 5786 5783 5780 5775 5771 5766 5764 5765 5765 5764 5764 5763 5761 5759 5757 5755 5753 5751 5749 5747 5745 5743 5740 5737 5737 5737 5736 5733 5729 5729 5734 5737 5739 5739 5740 5741 5741 5741 5740
5801 5798 5795 5790 5787 5785 5782 5779 5774 5771 5768 5767 5766 5764 5763 5763 5762 5760 5758 5756 5753 5751 5749 5747 5745 5743 5741 5738 5736 5735 5734 5732 5731 5727 5726 5730 5733 5736 5737 5738 5738 5738 5738
5802 5799 5795 5791 5788 5786 5783 5780 5776 5773 5769 5766 5765 5763 5763 5762 5761 5760 5758 5756 5754 5752 5749 5747 5746 5744 5742 5740 5738 5736 5734 5731 5729 5727 5725 5725 5727 5731 5734 5735 5736 5736 5735